Location: Caltech
(34.1382°N, 118.1253°W)
Time: 02:26:57
(UTC-07:00)

SL-08 RB Rocket - Visible Passes

Search period start: 31 July 2014 00:00
Search period end: 10 August 2014 00:00
Orbit: 650 x 689 km, 98.1° (Epoch: 30 July)

Date Brightness Start Highest point End Pass type
(mag) Time Alt. Az. Time Alt. Az. Time Alt. Az.
31 Jul 4.0 22:29:31 61° N 22:29:31 61° N 22:33:14 10° N visible
01 Aug 5.5 21:24:20 15° ENE 21:24:38 15° ENE 21:27:12 10° NNE visible
01 Aug 5.1 23:02:32 34° WNW 23:02:32 34° WNW 23:05:35 10° NNW visible
02 Aug 4.6 21:57:21 33° ENE 21:57:21 33° ENE 22:00:58 10° N visible
02 Aug 6.2 23:35:33 15° WNW 23:35:33 15° WNW 23:37:05 10° NW visible
03 Aug 4.2 22:30:22 54° N 22:30:22 54° N 22:33:52 10° N visible
04 Aug 5.5 21:25:12 15° ENE 21:25:15 15° ENE 21:27:51 10° NNE visible
04 Aug 5.3 23:03:24 31° WNW 23:03:24 31° WNW 23:06:12 10° NNW visible
05 Aug 4.7 21:58:13 32° NE 21:58:13 32° NE 22:01:36 10° N visible
05 Aug 6.3 23:36:25 14° WNW 23:36:25 14° WNW 23:37:40 10° NW visible
06 Aug 4.4 22:31:15 48° N 22:31:15 48° N 22:34:29 10° N visible
07 Aug 5.5 21:26:04 16° ENE 21:26:04 16° ENE 21:28:31 10° NNE visible
07 Aug 5.5 23:04:16 29° NW 23:04:16 29° NW 23:06:48 10° NNW visible
08 Aug 4.8 21:59:05 31° NE 21:59:05 31° NE 22:02:13 10° N visible
08 Aug 6.4 23:37:17 13° WNW 23:37:17 13° WNW 23:38:15 10° NW visible
09 Aug 4.7 22:32:07 42° N 22:32:07 42° N 22:35:06 10° N visible
